Overview Statistics Trail Chart Weather Telemetry Raw packets
 

This is the latest recevied weather packets stored in our database for station/object KA1JKB. If no packets are shown the sender has not sent any weather packets the latest 10 day(s).

<< 60 61 62 63 64 65 66 >>
Time Temp. Humidity Pressure Rain* Wind** Luminosity Snow
1788008539 15.56° C 99% 1020.2 hPa 0 mm - 134 W/m² -
1788008236 15° C 99% 1020.2 hPa 0 mm - 120 W/m² -
1788007935 15° C 99% 1020.3 hPa 0 mm - 84 W/m² -
1788007633 14.44° C 99% 1020.3 hPa 0 mm - 97 W/m² -
1788007328 14.44° C 99% 1020.2 hPa 0 mm - 73 W/m² -
1788007023 14.44° C 99% 1020.5 hPa 0 mm - 65 W/m² -
1788006723 15° C 99% 1020.6 hPa 0 mm - 69 W/m² -
1788006417 14.44° C 99% 1020.7 hPa 0 mm - 66 W/m² -
1788006117 13.89° C 99% 1020.3 hPa 0 mm - 58 W/m² -
1788005816 13.89° C 99% 1020.5 hPa 0 mm - 55 W/m² -
1788005511 13.89° C 99% 1020.3 hPa 0 mm - 53 W/m² -
1788005210 13.33° C 99% 1020.2 hPa 0 mm - 56 W/m² -
1788004910 13.33° C 99% 1019.9 hPa 0 mm - 52 W/m² -
1788004609 13.33° C 99% 1019.9 hPa 0 mm - 48 W/m² -
1788004309 13.33° C 99% 1020.1 hPa 0 mm - 42 W/m² -
1788004009 12.78° C 99% 1019.9 hPa 0 mm - 40 W/m² -
1788003707 12.78° C 99% 1019.8 hPa 0 mm - 37 W/m² -
1788003403 11.67° C 99% 1019.8 hPa 0 mm - 44 W/m² -
1788003103 10.56° C 99% 1020.1 hPa 0 mm - 43 W/m² -
1788002803 10° C 99% 1020 hPa 0 mm - 36 W/m² -
1788002498 9.44° C 99% 1019.8 hPa 0 mm - 27 W/m² -
1788002193 9.44° C 99% 1019.8 hPa 0 mm - 20 W/m² -
1788001893 9.44° C 99% 1019.9 hPa 0 mm - 12 W/m² -
1788001589 8.89° C 99% 1019.9 hPa 0 mm - 8 W/m² -
1788001284 8.89° C 99% 1019.8 hPa 0 mm - 3 W/m² -

* Rain latest hour (hover to see other rain measurements)
** Current wind speed in m/s (hover to see current wind gust speed)